THOR ABLESTAR DEB, 264

Orbit data source: Space-Track

THOR ABLESTAR DEB, 264 is space debris in LEO originally from a launch on Thu, 29 Jun 1961 UTC launched from the Air Force Eastern Test Range (AFETR). Debris objects in space refer to the collection of defunct objects orbiting the Earth. Examples of debris include non-operational satellites, rocket bodies, and fragments generated from explosions, collisions, or faulty payload assembly.

Loading next visibility...
Identifier
264, 1961-015CL
Orbit
LEO
Last TLE update
12 hours ago
Origin
Manufacturer
Unknown
Mission
Spacecraft
Bus & Motor
Unknown
Mass
Unknown
Launch date (UTC)
1961-06-29 (64 years ago)
Launch vehicle
Unknown
Launch site
Air Force Eastern Test Range (AFETR)
Object type
Payload
Rocket body
Debris
Shape & HBR
Unknown
Radar Cross Section
Medium (>0.1 m² and <1 m²)

Expand to show TLE details & history

TLE from 12 hours ago
0 THOR ABLESTAR DEB
1 00264U 61015CL  25129.27741727  .00002708  00000-0  94007-3 0  9991
2 00264  66.5250 230.2432 0031094 301.9462  57.8616 14.36803371275582
Epoch: 2025-05-09T06:39Z
Definitive object data (Epoch: 2025-05-09T06:39:28.852Z)
Latitude
0.00005°
Longitude
-96.96286°
Altitude
759.406 km
Speed
7.481 km/s
True Right ascension
15h 20m 58s
True Declination
0° 00' 00"
Sunlit
Object was in full shadow at TLE epoch
Visualization TLE readout
Latitude
11.51579°
Longitude
76.60416°
Altitude
785.866 km
Speed
7.454 km/s
Apparent Right ascension
02h 02m 34s
Apparent Declination
-50° 13' 01"
Sunlit
Object is in daylight
Visualization observer readout
Local Sidereal Time
03:18:47
Azimuth
192.061° SSW
Elevation
-1.673°
Doppler factor
1
Orbital elements
Apogee altitude
789.689 km
Perigee altitude
745.251 km
Semi-major axis
7,145.607 km
Eccentricity
0.0031094
Inclination
66.525°
RAAN
230.2432°
Arg. of periapsis
301.9462°
True anomaly
58.16394°
Mean anomaly
57.8616°
Eccentric anomaly
58.01271°
Mean motion
3.59323 °/min
BSTAR
0.00094007
Orbital period
100.19 mins
Loading maneuver chart data...
Loading SW <> Apogee altitude chart data...

THOR ABLESTAR DEB Visibility forecast

Observer location: undefined°, undefined°

Span
Click to sort rows by Start time (UTC) header in descending order
Start Az.
Max El. time (UTC)
Max El. Az.
Max El.
End time (UTC)
End Az.
9 mins2025-05-10 07:49:51.909Z188.934° SSW2025-05-10 07:54:51.909Z106.357° ESE38.509°2025-05-10 07:58:51.909Z41.77° NE
7 mins2025-05-10 09:34:51.909Z268.636° W2025-05-10 09:37:51.909Z310.379° NW21.68°2025-05-10 09:41:51.909Z2.67° NNE
8 mins2025-05-10 16:36:51.909Z350.782° N2025-05-10 16:40:51.909Z57.825° ENE32.341°2025-05-10 16:44:51.909Z118.245° SE
7 mins2025-05-10 18:20:51.909Z293.814° NW2025-05-10 18:23:51.909Z244.101° WSW25.567°2025-05-10 18:27:51.909Z193.802° SSW
|